TimeEST,TemperatureF,Dew PointF,Humidity,Sea Level PressureIn,VisibilityMPH,Wind Direction,Wind SpeedMPH,Gust SpeedMPH,PrecipitationIn,Events,Conditions,WindDirDegrees,DateUTC
12:05 AM,30.2,26.6,86,30.03,3.0,North,10.4,-,N/A,,Overcast,360,2013-03-08 05:05:00
12:17 AM,30.2,26.6,86,30.03,2.0,North,10.4,-,N/A,,Overcast,360,2013-03-08 05:17:00
12:24 AM,30.2,26.6,86,30.03,1.8,North,10.4,-,N/A,,Overcast,360,2013-03-08 05:24:00
12:51 AM,30.0,27.1,89,30.79,1.2,North,9.2,-,N/A,,Mostly Cloudy,350,2013-03-08 05:51:00
12:58 AM,30.2,28.4,93,30.03,1.0,North,9.2,-,N/A,,Mostly Cloudy,360,2013-03-08 05:58:00
1:07 AM,30.2,28.4,93,30.02,1.0,North,10.4,-,N/A,,Mist,360,2013-03-08 06:07:00
1:20 AM,30.2,28.4,93,30.02,0.8,North,11.5,-,N/A,,Mist,360,2013-03-08 06:20:00
1:27 AM,30.2,28.4,93,30.02,1.0,North,10.4,19.6,N/A,,Mist,360,2013-03-08 06:27:00
1:34 AM,30.2,28.4,93,30.01,1.2,North,13.8,-,N/A,,Mostly Cloudy,360,2013-03-08 06:34:00
1:51 AM,30.0,28.0,92,30.77,1.0,North,10.4,-,N/A,,Overcast,360,2013-03-08 06:51:00
2:29 AM,30.2,26.6,86,29.99,1.2,North,11.5,-,N/A,,Mostly Cloudy,360,2013-03-08 07:29:00
2:33 AM,30.2,26.6,86,29.99,1.0,North,10.4,-,N/A,,Mist,360,2013-03-08 07:33:00
2:35 AM,30.2,26.6,86,29.99,1.2,North,10.4,-,N/A,,Mostly Cloudy,360,2013-03-08 07:35:00
2:51 AM,30.0,27.1,89,30.75,1.2,North,13.8,-,N/A,,Mostly Cloudy,360,2013-03-08 07:51:00
3:51 AM,30.0,27.1,89,30.75,1.5,North,10.4,-,N/A,,Mostly Cloudy,360,2013-03-08 08:51:00
3:59 AM,30.2,26.6,86,29.99,1.0,North,10.4,-,N/A,,Mostly Cloudy,360,2013-03-08 08:59:00
4:14 AM,30.2,26.6,86,29.99,1.2,North,11.5,-,N/A,,Mostly Cloudy,360,2013-03-08 09:14:00
4:21 AM,30.2,26.6,86,29.99,1.2,North,11.5,-,N/A,,Mostly Cloudy,360,2013-03-08 09:21:00
4:25 AM,30.2,26.6,86,29.99,1.0,North,11.5,-,N/A,,Mostly Cloudy,360,2013-03-08 09:25:00
4:42 AM,30.2,26.6,86,29.99,0.8,North,11.5,18.4,N/A,,Mostly Cloudy,360,2013-03-08 09:42:00
5:06 AM,30.2,26.6,86,29.99,0.8,North,10.4,-,N/A,,Clear,360,2013-03-08 10:06:00
5:18 AM,30.2,26.6,86,29.99,0.8,North,12.7,19.6,N/A,,Mist,360,2013-03-08 10:18:00
5:51 AM,30.0,27.1,89,30.75,0.8,North,10.4,-,N/A,,Mist,360,2013-03-08 10:51:00
6:00 AM,30.2,26.6,86,29.99,1.0,North,12.7,20.7,N/A,,Mist,360,2013-03-08 11:00:00
6:23 AM,30.2,26.6,86,30.00,0.8,North,11.5,17.3,N/A,,Mostly Cloudy,360,2013-03-08 11:23:00
6:30 AM,30.2,26.6,86,30.00,1.0,North,10.4,-,N/A,,Overcast,360,2013-03-08 11:30:00
6:51 AM,30.0,27.1,89,30.77,0.5,North,13.8,-,N/A,Fog,Light Freezing Fog,360,2013-03-08 11:51:00
7:17 AM,30.2,28.4,93,30.01,0.5,North,11.5,-,N/A,Fog,Light Freezing Fog,360,2013-03-08 12:17:00
7:27 AM,30.2,28.4,93,30.02,0.5,North,10.4,-,N/A,Fog,Light Freezing Fog,360,2013-03-08 12:27:00
7:34 AM,30.2,28.4,93,30.02,0.5,North,8.1,18.4,N/A,Fog,Light Freezing Fog,360,2013-03-08 12:34:00
7:51 AM,30.0,28.0,92,30.78,0.5,North,12.7,-,N/A,Fog,Light Freezing Fog,360,2013-03-08 12:51:00
8:11 AM,30.2,26.6,86,30.01,0.2,North,15.0,-,N/A,Fog,Light Freezing Fog,350,2013-03-08 13:11:00
8:51 AM,30.0,28.0,92,30.78,0.5,North,12.7,-,N/A,Fog,Light Freezing Fog,360,2013-03-08 13:51:00
9:28 AM,30.2,26.6,86,30.02,0.8,North,9.2,19.6,0.00,Snow,Snow,360,2013-03-08 14:28:00
9:37 AM,30.2,26.6,86,30.02,0.8,North,12.7,18.4,0.00,Snow,Snow,360,2013-03-08 14:37:00
9:51 AM,31.1,28.0,88,30.79,0.8,North,9.2,-,0.00,Snow,Snow,360,2013-03-08 14:51:00
10:16 AM,30.2,28.4,93,30.03,1.2,North,9.2,-,0.00,Snow,Snow,10,2013-03-08 15:16:00
10:36 AM,32.0,26.6,80,30.03,2.0,North,8.1,-,0.00,Snow,Snow,360,2013-03-08 15:36:00
11:07 AM,33.8,24.8,70,30.03,4.0,North,9.2,17.3,0.00,Snow,Snow,360,2013-03-08 16:07:00
11:15 AM,33.8,24.8,70,30.04,1.8,North,12.7,19.6,0.00,Snow,Snow,360,2013-03-08 16:15:00
11:19 AM,33.8,26.6,75,30.04,1.0,North,10.4,19.6,0.00,Snow,Snow,360,2013-03-08 16:19:00
11:28 AM,33.8,26.6,75,30.04,0.8,North,11.5,19.6,0.00,Snow,Snow,360,2013-03-08 16:28:00
11:41 AM,32.0,28.4,87,30.04,0.5,North,11.5,19.6,0.00,Fog-Snow,Snow,360,2013-03-08 16:41:00
11:53 AM,33.8,28.4,81,30.04,1.5,North,9.2,-,0.00,Snow,Snow,360,2013-03-08 16:53:00
11:57 AM,33.8,28.4,81,30.03,3.0,North,9.2,-,0.00,Snow,Snow,350,2013-03-08 16:57:00
12:51 PM,37.9,23.0,55,30.80,10.0,North,9.2,-,0.00,Snow,Snow,360,2013-03-08 17:51:00
1:51 PM,39.9,23.0,51,30.80,10.0,NNE,10.4,13.8,0.05,,Overcast,20,2013-03-08 18:51:00
2:51 PM,41.9,22.1,45,30.80,10.0,North,8.1,-,0.10,,Partly Cloudy,360,2013-03-08 19:51:00
3:51 PM,41.9,24.1,49,30.82,10.0,North,12.7,19.6,N/A,,Overcast,10,2013-03-08 20:51:00
4:51 PM,39.9,31.1,71,30.84,10.0,NW,8.1,-,N/A,,Partly Cloudy,320,2013-03-08 21:51:00
5:51 PM,39.9,29.1,65,30.87,10.0,NNW,8.1,-,N/A,,Mostly Cloudy,330,2013-03-08 22:51:00
6:51 PM,38.8,26.1,60,30.89,10.0,NNW,9.2,-,N/A,,Mostly Cloudy,330,2013-03-08 23:51:00
7:51 PM,36.9,25.2,63,30.91,10.0,NW,6.9,-,N/A,,Scattered Clouds,310,2013-03-09 00:51:00
8:51 PM,36.9,23.0,57,30.93,10.0,NW,6.9,-,N/A,,Clear,320,2013-03-09 01:51:00
9:51 PM,36.0,22.1,57,30.94,10.0,NW,6.9,-,N/A,,Clear,310,2013-03-09 02:51:00
10:51 PM,34.9,20.1,55,30.94,10.0,NNW,8.1,-,N/A,,Clear,340,2013-03-09 03:51:00
11:51 PM,34.9,20.1,55,30.94,10.0,NW,6.9,-,N/A,,Clear,320,2013-03-09 04:51:00